OMD419 KBYI-KBOI

Flight info

Callsign OMD419
Flight time 0h -8m
Altitude 9000
Route DIRECT
Aircraft C208/L-VGD/C

Departure

Time 2026-04-20 02:25
Airport Burley Municipal Airport (KBYI)

Arrival

Time 2026-04-20 02:17
Airport Boise Air Terminal/Gowen Field (KBOI)
Time Latitude Longitude Altitude Speed Heading
2026-04-20 02:17 42.54053 -113.76876 4148 ft 0 kts 307°
2026-04-20 02:17 43.56224 -116.20628 2867 ft 0 kts 270°
2026-04-20 02:18 42.54053 -113.76876 4148 ft 0 kts 307°
2026-04-20 02:22 42.54069 -113.76893 4148 ft 8 kts 17°
2026-04-20 02:22 42.54040 -113.76906 4148 ft 5 kts 235°
2026-04-20 02:22 42.54039 -113.76908 4148 ft 0 kts 234°
2026-04-20 02:23 42.54033 -113.76928 4148 ft 7 kts 256°
2026-04-20 02:23 42.54095 -113.76997 4149 ft 19 kts 31°
2026-04-20 02:23 42.54234 -113.76856 4146 ft 30 kts 38°
2026-04-20 02:23 42.54375 -113.76704 4146 ft 22 kts 39°
2026-04-20 02:24 42.54401 -113.76695 4145 ft 0 kts 293°
2026-04-20 02:24 42.54404 -113.76703 4145 ft 5 kts 286°
2026-04-20 02:24 42.54405 -113.76714 4145 ft 3 kts 267°
2026-04-20 02:24 42.54385 -113.76854 4147 ft 30 kts 257°
2026-04-20 02:25 42.54308 -113.77409 4152 ft 84 kts 262°
2026-04-20 02:25 42.54233 -113.78271 4399 ft 93 kts 261°
2026-04-20 02:25 42.54165 -113.79144 4646 ft 102 kts 260°
2026-04-20 02:25 42.54065 -113.80184 4803 ft 116 kts 260°
2026-04-20 02:26 42.53952 -113.81316 4950 ft 126 kts 260°
2026-04-20 02:26 42.53829 -113.82527 5093 ft 133 kts 260°
2026-04-20 02:26 42.53931 -113.83807 5238 ft 138 kts 284°
2026-04-20 02:26 42.54351 -113.85007 5381 ft 142 kts 298°
2026-04-20 02:27 42.54880 -113.86163 5522 ft 144 kts 301°
2026-04-20 02:27 42.55421 -113.87295 5659 ft 144 kts 301°
2026-04-20 02:27 42.55970 -113.88465 5799 ft 147 kts 300°
2026-04-20 02:27 42.56525 -113.89664 5940 ft 148 kts 300°
2026-04-20 02:28 42.57086 -113.90894 6082 ft 149 kts 300°
2026-04-20 02:28 42.57628 -113.92094 6219 ft 149 kts 299°
2026-04-20 02:28 42.58170 -113.93303 6357 ft 149 kts 299°
2026-04-20 02:28 42.58715 -113.94522 6495 ft 149 kts 299°
2026-04-20 02:29 42.59257 -113.95737 6634 ft 149 kts 299°
2026-04-20 02:29 42.59794 -113.96942 6771 ft 149 kts 299°
2026-04-20 02:29 42.60333 -113.98152 6909 ft 148 kts 299°
2026-04-20 02:29 42.60866 -113.99348 7046 ft 148 kts 299°
2026-04-20 02:30 42.61402 -114.00552 7184 ft 148 kts 299°
2026-04-20 02:30 42.61932 -114.01743 7320 ft 147 kts 299°
2026-04-20 02:30 42.62463 -114.02938 7458 ft 147 kts 299°
2026-04-20 02:30 42.62992 -114.04127 7595 ft 147 kts 299°
2026-04-20 02:31 42.63524 -114.05325 7733 ft 147 kts 299°
2026-04-20 02:31 42.64048 -114.06504 7869 ft 146 kts 299°
2026-04-20 02:31 42.64575 -114.07691 8006 ft 146 kts 299°
2026-04-20 02:31 42.65101 -114.08875 8144 ft 146 kts 299°
2026-04-20 02:32 42.65625 -114.10055 8281 ft 145 kts 299°
2026-04-20 02:32 42.66149 -114.11237 8418 ft 145 kts 299°
2026-04-20 02:32 42.66670 -114.12412 8555 ft 145 kts 299°
2026-04-20 02:32 42.67192 -114.13590 8692 ft 145 kts 299°
2026-04-20 02:33 42.67712 -114.14763 8815 ft 145 kts 299°
2026-04-20 02:33 42.68242 -114.15962 8840 ft 151 kts 299°
2026-04-20 02:33 42.68797 -114.17217 8842 ft 156 kts 299°
2026-04-20 02:33 42.69358 -114.18483 8840 ft 159 kts 299°
2026-04-20 02:34 42.69936 -114.19788 8839 ft 161 kts 299°
2026-04-20 02:34 42.70520 -114.21107 8838 ft 162 kts 299°
2026-04-20 02:34 42.71104 -114.22427 8837 ft 162 kts 299°
2026-04-20 02:34 42.71686 -114.23742 8836 ft 163 kts 299°
2026-04-20 02:35 42.72271 -114.25067 8835 ft 163 kts 299°
2026-04-20 02:35 42.72858 -114.26394 8835 ft 163 kts 299°
2026-04-20 02:35 42.73450 -114.27733 8835 ft 165 kts 299°
2026-04-20 02:35 42.74045 -114.29076 8835 ft 167 kts 299°
2026-04-20 02:36 42.74648 -114.30439 8835 ft 169 kts 299°
2026-04-20 02:36 42.75257 -114.31819 8835 ft 170 kts 299°
2026-04-20 02:36 42.75858 -114.33182 8835 ft 170 kts 299°
2026-04-20 02:36 42.76475 -114.34582 8835 ft 170 kts 299°
2026-04-20 02:37 42.77085 -114.35968 8902 ft 166 kts 299°
2026-04-20 02:37 42.77662 -114.37274 9036 ft 161 kts 299°
2026-04-20 02:37 42.78257 -114.38607 9053 ft 164 kts 300°
2026-04-20 02:37 42.78855 -114.39934 9055 ft 166 kts 300°
2026-04-20 02:38 42.79474 -114.41314 9007 ft 170 kts 300°
2026-04-20 02:38 42.80087 -114.42689 9000 ft 171 kts 300°
2026-04-20 02:38 42.80702 -114.44074 8999 ft 170 kts 300°
2026-04-20 02:38 42.81314 -114.45460 8999 ft 170 kts 299°
2026-04-20 02:39 42.81922 -114.46841 8999 ft 170 kts 299°
2026-04-20 02:39 42.82531 -114.48227 8999 ft 170 kts 299°
2026-04-20 02:39 42.83129 -114.49593 8999 ft 170 kts 303°
2026-04-20 02:39 42.83738 -114.50981 8999 ft 170 kts 303°
2026-04-20 02:40 42.84351 -114.52382 8999 ft 170 kts 303°
2026-04-20 02:40 42.84955 -114.53762 8999 ft 169 kts 303°
2026-04-20 02:40 42.85551 -114.55127 8998 ft 169 kts 303°
2026-04-20 02:40 42.86153 -114.56506 8999 ft 168 kts 303°
2026-04-20 02:41 42.86752 -114.57877 8999 ft 168 kts 303°
2026-04-20 02:41 42.87351 -114.59244 8999 ft 168 kts 303°
2026-04-20 02:41 42.87958 -114.60631 8999 ft 168 kts 303°
2026-04-20 02:41 42.88560 -114.62004 8998 ft 168 kts 303°
2026-04-20 02:42 42.89158 -114.63373 8998 ft 167 kts 303°
2026-04-20 02:42 42.89747 -114.64721 8998 ft 167 kts 303°
2026-04-20 02:42 42.90346 -114.66095 8999 ft 166 kts 302°
2026-04-20 02:42 42.90941 -114.67461 8999 ft 166 kts 302°
2026-04-20 02:43 42.91528 -114.68810 8999 ft 166 kts 302°
2026-04-20 02:43 42.92119 -114.70167 8999 ft 166 kts 302°
2026-04-20 02:43 42.92711 -114.71528 8999 ft 166 kts 302°
2026-04-20 02:43 42.93297 -114.72877 8999 ft 166 kts 302°
2026-04-20 02:44 42.93887 -114.74234 8999 ft 166 kts 302°
2026-04-20 02:44 42.94482 -114.75603 8999 ft 166 kts 302°
2026-04-20 02:44 42.95072 -114.76964 8999 ft 166 kts 302°
2026-04-20 02:44 42.95658 -114.78313 8999 ft 166 kts 302°
2026-04-20 02:45 42.96246 -114.79668 8999 ft 166 kts 302°
2026-04-20 02:45 42.96840 -114.81039 8999 ft 166 kts 302°
2026-04-20 02:45 42.97426 -114.82392 8999 ft 166 kts 302°
2026-04-20 02:45 42.98019 -114.83763 8999 ft 166 kts 302°
2026-04-20 02:46 42.98609 -114.85126 8999 ft 166 kts 302°
2026-04-20 02:46 42.99198 -114.86487 8999 ft 166 kts 302°
2026-04-20 02:46 42.99791 -114.87857 8999 ft 166 kts 302°
2026-04-20 02:46 43.00377 -114.89214 8998 ft 166 kts 302°
2026-04-20 02:47 43.00974 -114.90594 8974 ft 167 kts 302°
2026-04-20 02:47 43.01565 -114.91962 8971 ft 167 kts 302°
2026-04-20 02:47 43.02153 -114.93323 8971 ft 167 kts 302°
2026-04-20 02:47 43.02743 -114.94691 8971 ft 167 kts 302°
2026-04-20 02:48 43.03338 -114.96071 8971 ft 166 kts 302°
2026-04-20 02:48 43.03919 -114.97419 8971 ft 166 kts 302°
2026-04-20 02:48 43.04508 -114.98786 8971 ft 166 kts 302°
2026-04-20 02:48 43.05100 -115.00160 8971 ft 167 kts 302°
2026-04-20 02:49 43.05690 -115.01531 8971 ft 167 kts 302°
2026-04-20 02:49 43.06279 -115.02902 8971 ft 167 kts 302°
2026-04-20 02:49 43.06870 -115.04275 8971 ft 167 kts 302°
2026-04-20 02:49 43.07455 -115.05637 8971 ft 167 kts 302°
2026-04-20 02:50 43.08049 -115.07018 8971 ft 167 kts 303°
2026-04-20 02:50 43.08639 -115.08392 8971 ft 167 kts 303°
2026-04-20 02:50 43.09226 -115.09759 8971 ft 167 kts 303°
2026-04-20 02:50 43.09816 -115.11137 8971 ft 167 kts 303°
2026-04-20 02:51 43.10415 -115.12532 8972 ft 168 kts 303°
2026-04-20 02:51 43.11004 -115.13905 8973 ft 168 kts 303°
2026-04-20 02:51 43.11597 -115.15289 8973 ft 168 kts 303°
2026-04-20 02:51 43.12191 -115.16679 8973 ft 168 kts 303°
2026-04-20 02:52 43.12790 -115.18076 8973 ft 169 kts 303°
2026-04-20 02:52 43.13380 -115.19455 8973 ft 169 kts 303°
2026-04-20 02:52 43.13976 -115.20848 8972 ft 169 kts 303°
2026-04-20 02:52 43.14570 -115.22238 8969 ft 169 kts 303°
2026-04-20 02:53 43.15172 -115.23648 8965 ft 170 kts 303°
2026-04-20 02:53 43.15765 -115.25036 8961 ft 170 kts 303°
2026-04-20 02:53 43.16380 -115.26479 8957 ft 170 kts 303°
2026-04-20 02:53 43.16982 -115.27890 8954 ft 170 kts 303°
2026-04-20 02:54 43.17594 -115.29326 8950 ft 170 kts 303°
2026-04-20 02:54 43.18200 -115.30748 8946 ft 170 kts 303°
2026-04-20 02:54 43.18791 -115.32135 8942 ft 170 kts 303°
2026-04-20 02:54 43.19392 -115.33546 8938 ft 170 kts 303°
2026-04-20 02:55 43.19989 -115.34950 8935 ft 170 kts 303°
2026-04-20 02:55 43.20585 -115.36351 8931 ft 170 kts 303°
2026-04-20 02:55 43.21178 -115.37746 8927 ft 170 kts 303°
2026-04-20 02:55 43.21774 -115.39148 8923 ft 170 kts 303°
2026-04-20 02:56 43.22372 -115.40557 8920 ft 170 kts 303°
2026-04-20 02:56 43.22971 -115.41968 8916 ft 170 kts 303°
2026-04-20 02:56 43.23565 -115.43366 8912 ft 170 kts 303°
2026-04-20 02:56 43.24160 -115.44769 8909 ft 170 kts 303°
2026-04-20 02:57 43.24760 -115.46184 8908 ft 170 kts 303°
2026-04-20 02:57 43.25351 -115.47581 8908 ft 170 kts 303°
2026-04-20 02:57 43.25950 -115.48995 8908 ft 170 kts 303°
2026-04-20 02:57 43.26544 -115.50398 8908 ft 169 kts 303°
2026-04-20 02:58 43.27134 -115.51792 8908 ft 169 kts 303°
2026-04-20 02:58 43.27725 -115.53191 8908 ft 169 kts 303°
2026-04-20 02:58 43.28317 -115.54591 8908 ft 169 kts 303°
2026-04-20 02:58 43.28877 -115.56007 8907 ft 170 kts 297°
2026-04-20 02:59 43.29357 -115.57529 8843 ft 174 kts 296°
2026-04-20 02:59 43.29827 -115.59049 8764 ft 176 kts 296°
2026-04-20 02:59 43.30310 -115.60607 8683 ft 178 kts 296°
2026-04-20 02:59 43.30796 -115.62175 8601 ft 178 kts 296°
2026-04-20 03:00 43.31282 -115.63741 8520 ft 179 kts 296°
2026-04-20 03:00 43.31777 -115.65336 8437 ft 179 kts 295°
2026-04-20 03:00 43.32265 -115.66909 8355 ft 179 kts 295°
2026-04-20 03:00 43.32750 -115.68469 8273 ft 180 kts 295°
2026-04-20 03:01 43.33242 -115.70049 8190 ft 180 kts 295°
2026-04-20 03:01 43.33733 -115.71629 8107 ft 180 kts 295°
2026-04-20 03:01 43.34230 -115.73223 8024 ft 180 kts 295°
2026-04-20 03:01 43.34723 -115.74805 7942 ft 180 kts 295°
2026-04-20 03:02 43.35206 -115.76356 7911 ft 178 kts 295°
2026-04-20 03:02 43.35697 -115.77936 7838 ft 178 kts 295°
2026-04-20 03:02 43.36187 -115.79504 7756 ft 179 kts 295°
2026-04-20 03:02 43.36678 -115.81079 7674 ft 180 kts 295°
2026-04-20 03:03 43.37170 -115.82658 7591 ft 180 kts 295°
2026-04-20 03:03 43.37663 -115.84235 7509 ft 180 kts 295°
2026-04-20 03:03 43.38161 -115.85827 7426 ft 180 kts 295°
2026-04-20 03:03 43.38651 -115.87392 7344 ft 180 kts 295°
2026-04-20 03:04 43.39150 -115.88985 7260 ft 180 kts 295°
2026-04-20 03:04 43.39648 -115.90570 7177 ft 179 kts 296°
2026-04-20 03:04 43.40140 -115.92135 7095 ft 179 kts 296°
2026-04-20 03:04 43.40633 -115.93699 7013 ft 179 kts 296°
2026-04-20 03:05 43.41133 -115.95277 6934 ft 178 kts 296°
2026-04-20 03:05 43.41682 -115.96799 6914 ft 173 kts 307°
2026-04-20 03:05 43.42379 -115.98138 6913 ft 171 kts 307°
2026-04-20 03:05 43.43077 -115.99455 6913 ft 169 kts 308°
2026-04-20 03:06 43.43955 -116.00449 6920 ft 166 kts 339°
2026-04-20 03:06 43.45042 -116.01005 6915 ft 166 kts 341°
2026-04-20 03:06 43.46134 -116.01513 6866 ft 169 kts 341°
2026-04-20 03:06 43.47266 -116.02030 6750 ft 173 kts 341°
2026-04-20 03:07 43.48396 -116.02563 6634 ft 175 kts 338°
2026-04-20 03:07 43.49411 -116.03427 6509 ft 162 kts 318°
2026-04-20 03:07 43.50110 -116.04502 6336 ft 140 kts 307°
2026-04-20 03:07 43.50621 -116.05610 5999 ft 137 kts 299°
2026-04-20 03:08 43.51038 -116.06771 5662 ft 135 kts 295°
2026-04-20 03:08 43.51426 -116.07945 5324 ft 133 kts 295°
2026-04-20 03:08 43.51811 -116.09095 4988 ft 132 kts 295°
2026-04-20 03:08 43.52199 -116.10226 4717 ft 129 kts 296°
2026-04-20 03:09 43.52586 -116.11340 4495 ft 131 kts 295°
2026-04-20 03:09 43.52977 -116.12477 4271 ft 132 kts 295°
2026-04-20 03:09 43.53370 -116.13629 4047 ft 133 kts 295°
2026-04-20 03:09 43.53763 -116.14779 3850 ft 131 kts 295°
2026-04-20 03:10 43.54145 -116.15897 3694 ft 126 kts 295°
2026-04-20 03:10 43.54488 -116.16903 3582 ft 109 kts 295°
2026-04-20 03:10 43.54805 -116.17825 3416 ft 103 kts 295°
2026-04-20 03:10 43.55102 -116.18695 3261 ft 99 kts 295°
2026-04-20 03:11 43.55386 -116.19529 3131 ft 94 kts 295°
2026-04-20 03:11 43.55654 -116.20311 3004 ft 85 kts 294°
2026-04-20 03:11 43.55884 -116.20977 2879 ft 71 kts 296°
2026-04-20 03:11 43.56060 -116.21480 2854 ft 33 kts 291°
2026-04-20 03:12 43.56094 -116.21624 2853 ft 16 kts 255°
2026-04-20 03:12 43.56041 -116.21703 2850 ft 0 kts 211°
2026-04-20 03:13 43.56036 -116.21707 2850 ft 5 kts 211°
2026-04-20 03:14 43.55973 -116.21787 2850 ft 18 kts 217°
2026-04-20 03:14 43.55949 -116.21934 2847 ft 19 kts 292°
2026-04-20 03:14 43.55985 -116.21955 2847 ft 0 kts 27°